SATCOM 3 DEB, 29002

Orbit data source: Space-Track

SATCOM 3 DEB, 29002 is space debris in HEO originally from a launch on Fri, 07 Dec 1979 UTC launched from the Air Force Eastern Test Range (AFETR). Debris objects in space refer to the collection of defunct objects orbiting the Earth. Examples of debris include non-operational satellites, rocket bodies, and fragments generated from explosions, collisions, or faulty payload assembly.

Loading next visibility...
Identifier
29002, 1979-101E
Orbit
HEO
Country
Flag of USUS
Related business
Manufacturer
Unknown
Mission
Spacecraft
Bus & Motor
Unknown
Mass
Unknown
Launch date (UTC)
1979-12-07 (47 years ago)
Launch vehicle
Unknown
Launch site
Air Force Eastern Test Range (AFETR)
Object type
Payload
Rocket body
Debris
Shape & HBR
Unknown shape, 1.1 m
Radar Cross Section
Medium (>0.1 m² and <1 m²)

Expand to show TLE details & history
Last TLE update: 20 hours ago

TLE from 20 hours ago
0 SATCOM 3 DEB
1 29002U 79101E   26168.37044854 -.00000104  00000-0  00000-0 0  9995
2 29002   8.5970  94.9735 4805301  81.7501  25.9875  1.81868774135481
Epoch: 2026-06-17T08:53Z
TLE epoch observation values (Epoch: 2026-06-17T08:53:26.753Z)
Latitude
3.94063°
Longitude
-151.26409°
Altitude
12,477.061 km
Speed
5.312 km/s
True Right ascension
16h 30m 54s
True Declination
3° 55' 54"
Sunlit
Object was in daylight at epoch
Visualization orbit readout
Latitude
Unknown
Longitude
Unknown
Altitude
Unknown
Speed
Unknown
Apparent Right ascension
Unknown
Apparent Declination
Unknown
Sunlit
N/A
Visualization observer readout
Local Sidereal Time
15:44:34
Azimuth
Unknown
Elevation
Unknown
Doppler factor
Unknown
Orbital elements
Apogee altitude
35,599.181 km
Perigee altitude
8,350.34 km
Semi-major axis
28,352.898 km
Eccentricity
0.48053
Inclination
8.597°
RAAN
94.9735°
Arg. of periapsis
81.7501°
True anomaly
70.84026°
Mean anomaly
25.9875°
Eccentric anomaly
45.68826°
Mean motion
0.45462 °/min
Orbital period
791.87 mins
BSTAR
0
Loading maneuver chart data...
Computing Atmospheric mass density...
Loading historical data...
Loading historical data...
Loading historical data...
Loading historical data...
Loading historical data...
Loading historical data...
Loading historical data...

Documentation

Showing up to 5 results
|